Time,TemperatureF,DewpointF,PressureIn,WindDirection,WindDirectionDegrees,WindSpeedMPH,WindSpeedGustMPH,Humidity,HourlyPrecipIn,Conditions,Clouds,dailyrainin,SoftwareType,DateUTC
2013-07-15 00:01:00,74.0,70.0,30.06,ESE,103,0.0,0.0,87,0.00,,,0.29,,2013-07-15 04:01:00,
2013-07-15 00:11:00,74.0,70.0,30.06,ESE,103,0.0,0.0,87,0.00,,,0.29,,2013-07-15 04:11:00,
2013-07-15 00:22:00,74.0,70.0,30.06,ESE,103,0.0,0.0,87,0.00,,,0.29,,2013-07-15 04:22:00,
2013-07-15 00:32:00,73.0,69.0,30.06,ESE,103,0.0,0.0,87,0.00,,,0.29,,2013-07-15 04:32:00,
2013-07-15 00:42:00,73.0,69.0,30.06,ESE,103,0.0,0.0,87,0.00,,,0.29,,2013-07-15 04:42:00,
2013-07-15 00:54:00,73.0,69.0,30.06,ESE,103,0.0,0.0,87,0.00,,,0.29,,2013-07-15 04:54:00,
2013-07-15 01:02:00,73.0,69.0,30.06,ESE,103,0.0,0.0,87,0.00,,,0.29,,2013-07-15 05:02:00,
2013-07-15 01:11:00,73.0,69.0,30.06,ESE,103,0.0,0.0,87,0.00,,,0.29,,2013-07-15 05:11:00,
2013-07-15 01:22:00,73.0,69.0,30.06,ESE,103,0.0,0.0,87,0.00,,,0.29,,2013-07-15 05:22:00,
2013-07-15 01:32:00,73.0,69.0,30.06,ESE,103,0.0,0.0,87,0.00,,,0.29,,2013-07-15 05:32:00,
2013-07-15 01:43:00,73.0,69.0,30.06,ESE,103,0.0,1.0,87,0.03,,,0.32,,2013-07-15 05:43:00,
2013-07-15 01:53:00,73.0,69.0,30.06,ESE,103,0.0,0.0,87,0.05,,,0.34,,2013-07-15 05:53:00,
2013-07-15 02:02:00,73.0,69.0,30.06,ESE,103,0.0,0.0,87,0.05,,,0.34,,2013-07-15 06:02:00,
2013-07-15 02:12:00,73.0,69.0,30.05,ESE,103,0.0,0.0,87,0.05,,,0.34,,2013-07-15 06:12:00,
2013-07-15 02:22:00,73.0,69.0,30.05,ESE,103,0.0,0.0,87,0.05,,,0.34,,2013-07-15 06:22:00,
2013-07-15 02:32:00,73.0,69.0,30.05,ESE,103,0.0,0.0,87,0.05,,,0.34,,2013-07-15 06:32:00,
2013-07-15 02:42:00,73.0,69.0,30.05,ESE,103,0.0,0.0,87,0.05,,,0.34,,2013-07-15 06:42:00,
2013-07-15 02:53:00,73.0,69.0,30.05,ESE,103,0.0,0.0,87,0.00,,,0.34,,2013-07-15 06:53:00,
2013-07-15 03:01:00,73.0,69.0,30.05,ESE,103,0.0,0.0,87,0.00,,,0.34,,2013-07-15 07:01:00,
2013-07-15 03:11:00,73.0,69.0,30.05,ESE,103,0.0,0.0,87,0.00,,,0.34,,2013-07-15 07:11:00,
2013-07-15 03:22:00,73.0,69.0,30.05,ESE,103,0.0,0.0,87,0.00,,,0.34,,2013-07-15 07:22:00,
2013-07-15 03:33:00,73.0,69.0,30.04,ESE,103,0.0,0.0,87,0.00,,,0.34,,2013-07-15 07:33:00,
2013-07-15 03:44:00,73.0,69.0,30.04,ESE,103,0.0,1.0,87,0.00,,,0.34,,2013-07-15 07:44:00,
2013-07-15 03:53:00,72.0,68.0,30.03,ESE,103,0.0,0.0,87,0.00,,,0.34,,2013-07-15 07:53:00,
2013-07-15 04:01:00,72.0,68.0,30.03,ESE,103,0.0,0.0,87,0.00,,,0.34,,2013-07-15 08:01:00,
2013-07-15 04:11:00,72.0,68.0,30.03,ESE,103,0.0,0.0,87,0.00,,,0.34,,2013-07-15 08:11:00,
2013-07-15 04:22:00,72.0,68.0,30.03,ESE,103,0.0,0.0,87,0.00,,,0.34,,2013-07-15 08:22:00,
2013-07-15 04:32:00,72.0,68.0,30.03,ESE,103,0.0,0.0,87,0.00,,,0.34,,2013-07-15 08:32:00,
2013-07-15 04:43:00,72.0,68.0,30.02,ESE,103,0.0,0.0,87,0.00,,,0.34,,2013-07-15 08:43:00,
2013-07-15 04:53:00,72.0,68.0,30.02,ESE,103,0.0,0.0,87,0.00,,,0.34,,2013-07-15 08:53:00,
2013-07-15 05:02:00,72.0,68.0,30.02,ESE,103,0.0,0.0,87,0.00,,,0.34,,2013-07-15 09:02:00,
2013-07-15 05:11:00,72.0,68.0,30.02,ESE,103,0.0,0.0,87,0.00,,,0.34,,2013-07-15 09:11:00,
2013-07-15 05:22:00,72.0,68.0,30.02,ESE,103,0.0,0.0,87,0.00,,,0.34,,2013-07-15 09:22:00,
2013-07-15 05:32:00,72.0,68.0,30.02,ESE,103,0.0,0.0,87,0.00,,,0.34,,2013-07-15 09:32:00,
2013-07-15 05:43:00,72.0,68.0,30.02,ESE,103,0.0,0.0,87,0.00,,,0.34,,2013-07-15 09:43:00,
2013-07-15 05:52:00,72.0,68.0,30.02,ESE,103,0.0,0.0,87,0.00,,,0.34,,2013-07-15 09:52:00,
2013-07-15 06:02:00,72.0,68.0,30.02,ESE,103,0.0,0.0,87,0.00,,,0.34,,2013-07-15 10:02:00,
2013-07-15 06:11:00,72.0,68.0,30.03,ESE,103,0.0,0.0,88,0.00,,,0.34,,2013-07-15 10:11:00,
2013-07-15 06:22:00,72.0,68.0,30.03,ESE,103,0.0,0.0,88,0.00,,,0.34,,2013-07-15 10:22:00,
2013-07-15 06:32:00,72.0,68.0,30.03,ESE,103,0.0,0.0,88,0.00,,,0.34,,2013-07-15 10:32:00,
2013-07-15 06:43:00,72.0,68.0,30.03,ESE,103,0.0,0.0,88,0.00,,,0.34,,2013-07-15 10:43:00,
2013-07-15 06:53:00,72.0,68.0,30.03,ESE,103,0.0,0.0,88,0.00,,,0.34,,2013-07-15 10:53:00,
2013-07-15 07:02:00,72.0,68.0,30.03,ESE,103,0.0,0.0,88,0.00,,,0.34,,2013-07-15 11:02:00,
2013-07-15 07:11:00,72.0,68.0,30.05,ESE,103,0.0,0.0,88,0.00,,,0.34,,2013-07-15 11:11:00,
2013-07-15 07:22:00,72.0,68.0,30.05,ESE,103,0.0,0.0,88,0.00,,,0.33,,2013-07-15 11:22:00,
2013-07-15 07:32:00,72.0,68.0,30.05,ESE,103,0.0,0.0,88,0.00,,,0.33,,2013-07-15 11:32:00,
2013-07-15 07:42:00,72.0,68.0,30.05,ESE,103,0.0,0.0,88,0.00,,,0.33,,2013-07-15 11:42:00,
2013-07-15 07:52:00,72.0,68.0,30.05,ESE,103,0.0,0.0,88,0.00,,,0.29,,2013-07-15 11:52:00,
2013-07-15 08:01:00,72.0,68.0,30.05,ESE,103,0.0,0.0,88,0.00,,,0.29,,2013-07-15 12:01:00,
2013-07-15 08:11:00,72.0,68.0,30.05,ESE,103,0.0,1.0,88,0.00,,,0.29,,2013-07-15 12:11:00,
2013-07-15 08:22:00,72.0,68.0,30.05,ESE,103,0.0,1.0,88,0.00,,,0.29,,2013-07-15 12:22:00,
2013-07-15 08:32:00,73.0,69.0,30.06,ESE,103,0.0,1.0,88,0.00,,,0.28,,2013-07-15 12:32:00,
2013-07-15 08:42:00,74.0,70.0,30.06,East,86,0.0,2.0,88,0.00,,,0.28,,2013-07-15 12:42:00,
2013-07-15 08:52:00,74.0,70.0,30.06,ENE,60,0.0,0.0,88,0.00,,,0.28,,2013-07-15 12:52:00,
2013-07-15 09:02:00,74.0,70.0,30.06,ENE,60,0.0,0.0,88,0.00,,,0.28,,2013-07-15 13:02:00,
2013-07-15 09:11:00,75.0,71.0,30.06,ENE,59,0.0,2.0,87,0.00,,,0.28,,2013-07-15 13:11:00,
2013-07-15 09:22:00,75.0,71.0,30.06,ENE,59,0.0,2.0,87,0.00,,,0.28,,2013-07-15 13:22:00,
2013-07-15 09:33:00,75.0,71.0,30.06,ENE,59,0.0,2.0,87,0.00,,,0.28,,2013-07-15 13:33:00,
2013-07-15 09:43:00,75.0,71.0,30.06,ENE,59,0.0,2.0,87,0.00,,,0.28,,2013-07-15 13:43:00,
2013-07-15 10:11:00,80.0,74.0,30.06,NE,48,0.0,3.0,83,0.00,,,0.27,,2013-07-15 14:11:00,
2013-07-15 10:32:00,82.0,74.0,30.06,East,80,2.0,4.0,78,0.00,,,0.27,,2013-07-15 14:32:00,
2013-07-15 10:33:00,83.0,75.0,30.06,ENE,68,2.0,5.0,78,0.00,,,0.27,,2013-07-15 14:33:00,
2013-07-15 10:42:00,82.0,74.0,30.06,ENE,71,2.0,6.0,78,0.00,,,0.27,,2013-07-15 14:42:00,
2013-07-15 11:01:00,82.0,74.0,30.06,East,80,2.0,4.0,78,0.00,,,0.27,,2013-07-15 15:01:00,
2013-07-15 11:49:00,85.0,76.0,30.06,NE,50,0.0,6.0,75,0.00,,,0.27,,2013-07-15 15:49:00,
2013-07-15 12:08:00,85.0,76.0,30.06,NE,50,0.0,6.0,75,0.00,,,0.27,,2013-07-15 16:08:00,
2013-07-15 12:15:00,86.0,76.0,30.06,NE,35,0.0,8.0,72,0.00,,,0.27,,2013-07-15 16:15:00,
2013-07-15 12:24:00,86.0,76.0,30.06,NE,35,0.0,8.0,72,0.00,,,0.27,,2013-07-15 16:24:00,
2013-07-15 12:33:00,87.0,76.0,30.06,NNE,19,3.0,7.0,71,0.00,,,0.09,,2013-07-15 16:33:00,
2013-07-15 12:52:00,87.0,76.0,30.05,SE,124,1.0,6.0,69,0.00,,,0.05,,2013-07-15 16:52:00,
2013-07-15 13:13:00,88.0,75.0,30.05,ENE,69,3.0,6.0,66,0.00,,,0.05,,2013-07-15 17:13:00,
2013-07-15 13:23:00,88.0,75.0,30.05,ENE,69,3.0,6.0,66,0.00,,,0.05,,2013-07-15 17:23:00,
2013-07-15 13:32:00,89.0,75.0,30.03,East,98,0.0,2.0,63,0.00,,,0.05,,2013-07-15 17:32:00,
2013-07-15 13:36:00,88.0,75.0,30.05,ENE,69,3.0,6.0,66,0.00,,,0.05,,2013-07-15 17:36:00,
2013-07-15 13:48:00,88.0,74.0,30.03,South,183,0.0,5.0,64,0.00,,,0.05,,2013-07-15 17:48:00,
2013-07-15 14:17:00,89.0,75.0,30.03,East,98,0.0,2.0,63,0.00,,,0.05,,2013-07-15 18:17:00,
2013-07-15 14:59:00,91.0,74.0,30.01,NNE,22,1.0,7.0,58,0.00,,,0.05,,2013-07-15 18:59:00,
2013-07-15 15:05:00,90.0,75.0,30.01,WSW,250,3.0,7.0,62,0.00,,,0.05,,2013-07-15 19:05:00,
2013-07-15 15:24:00,86.0,75.0,30.01,South,169,0.0,7.0,71,0.00,,,0.05,,2013-07-15 19:24:00,
2013-07-15 15:47:00,85.0,76.0,30.01,ESE,118,3.0,6.0,74,0.00,,,0.05,,2013-07-15 19:47:00,
2013-07-15 15:56:00,84.0,77.0,30.00,SSW,206,0.0,1.0,79,0.01,,,0.06,,2013-07-15 19:56:00,
2013-07-15 16:17:00,82.0,76.0,30.01,WSW,245,3.0,4.0,82,0.01,,,0.06,,2013-07-15 20:17:00,
2013-07-15 16:28:00,82.0,76.0,30.01,WSW,245,3.0,4.0,82,0.01,,,0.06,,2013-07-15 20:28:00,
2013-07-15 16:37:00,82.0,76.0,30.01,WSW,245,3.0,4.0,82,0.01,,,0.06,,2013-07-15 20:37:00,
2013-07-15 16:43:00,80.0,74.0,30.01,NE,43,3.0,5.0,83,0.01,,,0.06,,2013-07-15 20:43:00,
2013-07-15 16:59:00,80.0,74.0,30.01,NE,43,3.0,5.0,83,0.01,,,0.06,,2013-07-15 20:59:00,
2013-07-15 17:23:00,78.0,73.0,30.01,WNW,294,0.0,2.0,86,0.00,,,0.06,,2013-07-15 21:23:00,
2013-07-15 17:39:00,78.0,73.0,30.01,WNW,294,0.0,2.0,86,0.00,,,0.06,,2013-07-15 21:39:00,
2013-07-15 17:48:00,78.0,73.0,30.01,WNW,294,0.0,2.0,86,0.00,,,0.06,,2013-07-15 21:48:00,
2013-07-15 18:22:00,80.0,75.0,30.00,WNW,294,0.0,1.0,84,0.00,,,0.06,,2013-07-15 22:22:00,
2013-07-15 18:43:00,82.0,74.0,30.01,NNE,21,2.0,2.0,78,0.00,,,0.06,,2013-07-15 22:43:00,
2013-07-15 18:54:00,82.0,74.0,30.01,NNE,21,0.0,1.0,78,0.00,,,0.06,,2013-07-15 22:54:00,
2013-07-15 19:06:00,83.0,75.0,30.00,NNE,21,0.0,1.0,78,0.00,,,0.06,,2013-07-15 23:06:00,
2013-07-15 19:13:00,83.0,75.0,29.99,NNE,21,0.0,1.0,77,0.00,,,0.06,,2013-07-15 23:13:00,
2013-07-15 19:28:00,83.0,75.0,29.99,NNE,21,0.0,1.0,77,0.00,,,0.06,,2013-07-15 23:28:00,
2013-07-15 19:38:00,83.0,76.0,29.99,NNE,21,0.0,1.0,79,0.00,,,0.06,,2013-07-15 23:38:00,
2013-07-15 19:46:00,82.0,76.0,29.98,NNE,21,0.0,1.0,81,0.00,,,0.06,,2013-07-15 23:46:00,
2013-07-15 19:52:00,81.0,76.0,30.00,NNE,21,0.0,1.0,84,0.00,,,0.06,,2013-07-15 23:52:00,
2013-07-15 19:53:00,82.0,76.0,29.98,NNE,21,0.0,1.0,81,0.00,,,0.06,,2013-07-15 23:53:00,
2013-07-15 20:03:00,82.0,76.0,29.99,NNE,21,0.0,1.0,83,0.00,,,0.06,,2013-07-16 00:03:00,
2013-07-15 20:15:00,81.0,76.0,30.00,NNE,21,0.0,1.0,84,0.00,,,0.06,,2013-07-16 00:15:00,
2013-07-15 20:26:00,81.0,76.0,30.00,NNE,21,0.0,1.0,84,0.00,,,0.06,,2013-07-16 00:26:00,
2013-07-15 20:33:00,81.0,76.0,30.00,NNE,21,0.0,1.0,84,0.00,,,0.06,,2013-07-16 00:33:00,
2013-07-15 20:42:00,79.0,74.0,30.02,NNE,23,0.0,1.0,86,0.00,,,0.06,,2013-07-16 00:42:00,
2013-07-15 21:09:00,79.0,74.0,30.02,NNE,23,0.0,1.0,86,0.00,,,0.06,,2013-07-16 01:09:00,
2013-07-15 21:16:00,79.0,74.0,30.02,NNE,23,0.0,1.0,86,0.00,,,0.06,,2013-07-16 01:16:00,
2013-07-15 21:27:00,79.0,74.0,30.02,NNE,23,0.0,1.0,86,0.00,,,0.06,,2013-07-16 01:27:00,
2013-07-15 22:02:00,77.0,72.0,30.04,NNE,24,0.0,0.0,86,0.00,,,0.06,,2013-07-16 02:02:00,
2013-07-15 22:11:00,77.0,72.0,30.04,NNE,24,0.0,0.0,86,0.00,,,0.06,,2013-07-16 02:11:00,
2013-07-15 22:28:00,77.0,73.0,30.05,NNE,24,0.0,0.0,87,0.00,,,0.06,,2013-07-16 02:28:00,
2013-07-15 22:35:00,77.0,73.0,30.05,NNE,24,0.0,0.0,87,0.00,,,0.06,,2013-07-16 02:35:00,
2013-07-15 22:52:00,77.0,73.0,30.05,NNE,24,0.0,0.0,87,0.00,,,0.06,,2013-07-16 02:52:00,
2013-07-15 23:08:00,76.0,72.0,30.06,NNE,24,0.0,0.0,87,0.00,,,0.06,,2013-07-16 03:08:00,
2013-07-15 23:56:00,75.0,71.0,30.06,NNE,24,0.0,0.0,88,0.00,,,0.06,,2013-07-16 03:56:00,